Regional Weather Roundup
Issued by NWS

Home | Current Version | Previous Version | Text Only | Print | Product List | Glossary On
Versions: 1 2 3 4 5 6 7 8 9 10 11 12 13 14 15 16 17 18 19 20 21 22 23 24 25 26 27
000
ASUS45 KBOI 210210
RWRID

IDAHO REGIONAL WEATHER ROUNDUP
NATIONAL WEATHER SERVICE BOISE ID
700 PM MST MON NOV 20 2017

NOTE: "FAIR" INDICATES FEW OR NO CLOUDS BELOW 12000 FEET
WITH NO SIGNIFICANT WEATHER AND/OR OBSTRUCTIONS TO VISIBILITY

IDZ012-014-210300-
SOUTHWEST IDAHO


CITY           SKY/WX    TMP DP  RH WIND       PRES   REMARKS
BOISE          LGT RAIN  46  42  86 SE14      29.98R
CALDWELL       CLOUDY    49  43  80 SE14      29.96R
MOUNTAIN HOME  CLOUDY    42  42 100 E14       30.00R
$$

IDZ016-017-210300-
SOUTHCENTRAL IDAHO


CITY           SKY/WX    TMP DP  RH WIND       PRES   REMARKS
BURLEY         LGT RAIN  46  40  79 SW10      30.03R
JEROME         LGT RAIN  41  40  96 NE6       30.03S
TWIN FALLS     CLOUDY    48  42  80 SW7       30.03R
$$

IDZ019>023-210300-
SOUTHEAST IDAHO


CITY           SKY/WX    TMP DP  RH WIND       PRES   REMARKS
IDAHO FALLS    CLOUDY    40  33  76 S9        30.01S WCI  34
POCATELLO      CLOUDY    46  36  68 S13       30.04R
REXBURG        CLOUDY    37  35  92 S12       30.00S WCI  29
$$

IDZ006-010-011-018-031-032-210300-
CENTRAL IDAHO MOUNTAINS


CITY           SKY/WX    TMP DP  RH WIND       PRES   REMARKS
MCCALL         LGT RAIN  38  36  92 N9        29.93R WCI  31
HAILEY         CLOUDY    34  34 100 CALM      30.04S FOG
STANLEY          N/A     38  35  89 SE9       29.96S WCI  31
SALMON         CLOUDY    35  32  88 NW6       29.88S WCI  30
CHALLIS        MOCLDY    43  36  76 S9        29.89F
$$

IDZ002-004-006-007-026-210300-
NORTHERN IDAHO


CITY           SKY/WX    TMP DP  RH WIND       PRES   REMARKS
LEWISTON       CLEAR     48  42  80 S6        29.89R
LOWELL           N/A     40  39  97 N3        29.97R
COEUR D`ALENE  CLOUDY    44  40  85 SW13      29.83R
MULLAN PASS    CLOUDY    31  29  92 W8        29.80R WCI  23
$$




USA.gov is the U.S. government's official web portal to all federal, state and local government web resources and services.